Weather in Ignatovka

Russia / Ulyanovsk Oblast     53°56′58″N   47°39′13″E
temp.,
°C
wind,
m/s
gust,
m/s
humid.,
%
clouds,
%
prec.,
mm/h
press.,
hPa
HPBL,
m
28 february, sun
sun2801:00−16nnw6119299 0.0 1006401
04:00−18nw5129492 0.0 1008319
07:00−19nw5139581 0.0 1009290
10:00−18nw6109367 0.0 1010303
13:00−15nw599041 0.0 1011400
16:00−13nw599167 0.0 1012472
19:00−16nw3895100 0.0 1014185
22:00−17nw379799 0.1 1017145
1 march, mon
mon101:00−19nw349898 0.0 101868
04:00−20nw359984 0.1 102085
07:00−20nw359972 0.0 102275
10:00−17nw369556 0.0 1023224
13:00−13nw359175 0.0 1023332
16:00−11wnw369183 0.0 1023374
19:00−14w339542 0.0 102238
22:00−14wsw469541 0.0 1021110
2 march, tue
tue201:00−12sw5995100 0.0 1018268
04:00−8sw61292100 0.1 1013417
07:00−5wsw71493100 0.4 1009601
10:00−3wsw81495100 0.9 1006630
13:000wsw71299100 0.9 1003792
16:000w61197100 1.3 1002714
19:00−1wnw5109397 0.3 1002552
22:00−4wnw5129183 0.4 1003320
3 march, wed
wed301:00−5wnw5129448 0.0 1003332
04:00−5wnw5119470 0.1 1004335
07:00−5nw5109395 0.0 1004414
10:00−5nw5109292 0.1 1005607
13:00−4nw71087100 0.1 1006882
16:00−5nw71086100 0.2 1008977
19:00−7nw5129199 0.1 1009552
22:00−8nw5129394 0.1 1012328
4 march, thu
thu401:00−10wnw499680 0.0 1013188
04:00−11w489679 0.1 1013145
07:00−12wsw499561 0.0 1013173
10:00−7wsw7139062 0.0 1011446
13:00−2wsw91684100 0.0 1007802
16:00−1wsw91783100 0.0 1005761
19:00−2wsw9188498 0.0 1004902
22:00−1wsw9168899 0.0 10041043